Change the Weather History Date:

Friday, November 8, 2013

  Actual Average Record
Temperature  
Mean Temperature 48 °F -  
Max Temperature 63 °F 63 °F 82 °F (1999)
Min Temperature 34 °F 41 °F 18 °F (1993)
Degree Days  
Heating Degree Days 16    
Moisture  
Dew Point 37 °F    
Average Humidity 72    
Maximum Humidity 100    
Minimum Humidity 36    
Precipitation  
Precipitation 0.00 in - - ()
Sea Level Pressure  
Sea Level Pressure 30.33 in    
Wind  
Wind Speed 3 mph (SE)    
Max Wind Speed 7 mph    
Max Gust Speed -    
Visibility 6 miles    
Events      
Averages and records for this station are not official NWS values.
T = Trace of Precipitation, MM = Missing Value Source: NWS Daily Summary

Daily Weather History Graph

Daily Weather History Graph

Search for Another Location

Airport or City:

Trip Planner

Search our weather history database for the weather conditions in past years. The results will help you decide how hot, cold, wet, or windy it might be!

Date:

Astronomy

Nov. 08, 2013 Rise Set
Actual Time 6:36 AM CST 5:07 PM CST
Civil Twilight 6:09 AM CST 5:34 PM CST
Nautical Twilight 5:39 AM CST 6:04 PM CST
Astronomical Twilight 5:09 AM CST 6:34 PM CST
Moon 11:32 AM CST (11/8) 10:28 PM CST (11/8)
Length of Visible Light 11h 24m
Length of Day
10h 31m
Waxing Crescent, 33% of the Moon is Illuminated
Nov 8
Waxing Crescent
Nov 9
First Quarter
Nov 17
Full
Nov 25
Last Quarter
Dec 2
New

Hourly Weather History & Observations

Time (CST) Temp. Windchill Dew Point Humidity Pressure Visibility Wind Dir Wind Speed Gust Speed Precip Events Conditions
12:58 AM 38.3 °F 35.9 °F 36.5 °F 93% 30.38 in 8.0 mi West 3.5 mph - N/A   Clear
1:58 AM 37.9 °F 35.5 °F 36.0 °F 93% 30.38 in 8.0 mi West 3.5 mph - N/A   Clear
2:58 AM 37.2 °F - 35.2 °F 93% 30.37 in 6.0 mi West 2.3 mph - N/A   Clear
3:58 AM 37.0 °F - 34.7 °F 91% 30.38 in 8.0 mi West 1.2 mph - N/A   Clear
4:58 AM 36.1 °F - 34.0 °F 92% 30.38 in 8.0 mi West 2.3 mph - N/A   Clear
5:58 AM 36.3 °F - 34.5 °F 93% 30.39 in 8.0 mi West 2.3 mph - N/A   Clear
6:38 AM 35.6 °F - 33.8 °F 93% 30.37 in 2.5 mi Calm Calm - N/A   Clear
6:43 AM 35.6 °F - 32.0 °F 87% 30.37 in 2.0 mi Calm Calm - N/A   Clear
6:53 AM 35.6 °F - 32.0 °F 87% 30.37 in 2.5 mi Calm Calm - N/A   Clear
6:58 AM 34.9 °F - 33.1 °F 93% 30.40 in 2.5 mi NE 1.2 mph - N/A   Clear
7:08 AM 35.6 °F - 33.8 °F 93% 30.38 in 3.0 mi Calm Calm - N/A   Clear
7:13 AM 35.6 °F - 33.8 °F 93% 30.38 in 2.5 mi Calm Calm - N/A   Clear
7:23 AM 35.6 °F - 35.6 °F 100% 30.38 in 4.0 mi Calm Calm - N/A   Clear
7:58 AM 38.8 °F - 37.0 °F 93% 30.40 in 4.0 mi Calm Calm - N/A   Clear
8:58 AM 48.7 °F - 39.6 °F 71% 30.40 in 3.0 mi ENE 4.6 mph - N/A   Haze
9:18 AM 51.8 °F - 39.2 °F 62% 30.38 in 2.5 mi East 4.6 mph - N/A   Haze
9:23 AM 51.8 °F - 39.2 °F 62% 30.38 in 2.0 mi ENE 6.9 mph - N/A   Haze
9:28 AM 51.8 °F - 39.2 °F 62% 30.38 in 1.8 mi ENE 6.9 mph - N/A   Haze
9:33 AM 53.6 °F - 39.2 °F 58% 30.38 in 2.0 mi East 4.6 mph - N/A   Haze
9:38 AM 53.6 °F - 39.2 °F 58% 30.38 in 4.0 mi East 5.8 mph - N/A   Haze
9:58 AM 54.7 °F - 39.0 °F 56% 30.39 in 10.0 mi ESE 4.6 mph - N/A   Clear
10:58 AM 58.3 °F - 37.4 °F 46% 30.38 in 10.0 mi ESE 5.8 mph - N/A   Clear
11:58 AM 60.6 °F - 37.4 °F 42% 30.35 in 10.0 mi South 6.9 mph - N/A   Clear
12:58 PM 62.2 °F - 37.4 °F 40% 30.31 in 10.0 mi SSE 6.9 mph - N/A   Clear
1:58 PM 63.1 °F - 35.6 °F 36% 30.29 in 10.0 mi ESE 4.6 mph - N/A   Clear
2:58 PM 62.2 °F - 35.2 °F 37% 30.26 in 10.0 mi ESE 6.9 mph - N/A   Clear
3:58 PM 62.6 °F - 35.2 °F 36% 30.25 in 10.0 mi SSE 5.8 mph - N/A   Clear
4:58 PM 56.5 °F - 40.8 °F 56% 30.25 in 3.0 mi Calm Calm - N/A   Haze
5:58 PM 51.4 °F - 43.5 °F 74% 30.24 in 7.0 mi Calm Calm - N/A   Clear
6:58 PM 51.3 °F - 41.4 °F 69% 30.24 in 10.0 mi SSE 3.5 mph - N/A   Clear
7:58 PM 54.0 °F - 41.0 °F 62% 30.22 in 10.0 mi NE 2.3 mph - N/A   Clear
8:58 PM 48.7 °F - 41.9 °F 77% 30.21 in 7.0 mi Calm Calm - N/A   Clear
9:58 PM 50.9 °F - 41.5 °F 70% 30.22 in 10.0 mi South 5.8 mph - N/A   Clear
10:58 PM 50.7 °F - 41.0 °F 69% 30.21 in 10.0 mi South 5.8 mph - N/A   Clear
11:58 PM 45.0 °F - 40.6 °F 85% 30.21 in 10.0 mi Calm Calm - N/A   Clear